Showing default

BEIDOU 3M19, 44864

Orbit data source: Space-Track

BEIDOU 3M19, 44864 is a payload satellite owned by CNSA (CN) in MEO that was launched on Mon, 16 Dec 2019 UTC via a CHANG ZHENG 3B/YZ-1 launch vehicle from the Xichang Space Center, China (XSC). Payloads include a variety of satellites, spacecraft, and rockets equipped with specific instruments for various scientific and technological missions. These include communications satellites like Starlink; space stations such as the ISS; scientific satellites like the Hubble; Earth observation satellites from companies like Planet Labs, Umbra, and HawkEye 360; GPS; miniature CubeSats for education and research; and military/defense satellites.

Loading next visibility...
BEIDOU 3M19 details
Identifier
44864, 2019-090A
Orbit
MEO
Last TLE update1 day ago
Origin
Flag of CNCNSA (CN / PRC)
ManufacturerCAST
MissionOperational Defense Navigation
Bus & MotorBD-3M, Unknown motor
Mass1,014 kg wet, ~850 kg dry
Launch date (UTC)
2019-12-16 (5 years ago)
Launch vehicle
CHANG ZHENG 3B/YZ-1
Launch site
Xichang Space Center, China (XSC)
Object type
Payload
Rocket body
Debris
Shape & HBRBox + 2 Pan, Unknown HBR
Radar Cross Section8.984 m², Large (>1 m²)

Expand to show TLE details & history

TLE from 1 day ago
0 BEIDOU 3M19
1 44864U 19090A   24360.37867780 -.00000061  00000-0  00000-0 0  9994
2 44864  56.0857  80.6719 0018088 279.7123  90.3491  1.86231637 34208
Epoch: 2024-12-25T09:05Z
Definitive object data (Epoch: 2024-12-25T09:05:17.761Z)
Latitude8.50552°
Longitude-144.25974°
Altitude21,528.073 km
Speed3.78 km/s
True Right ascension05h 45m 45s
True Declination8° 29' 34"
Sunlit
Object was in daylight at TLE epoch
Visualization TLE readout
Latitude53.02171°
Longitude-87.08453°
Altitude21,580.908 km
Speed3.774 km/s
Apparent Right ascension08h 36m 59s
Apparent Declination53° 01' 12"
Sunlit
Object is in daylight
Visualization observer readout
Local Sidereal Time12:30:44
Azimuth308.702° NW
Elevation48.945°
Doppler factor1
Orbital elements
Apogee altitude21,578.429 km
Perigee altitude21,477.476 km
Semi-major axis27,906.09 km
Eccentricity0.0018088
Inclination56.0857°
RAAN80.6719°
Arg. of periapsis279.7123°
True anomaly90.55637°
Mean anomaly90.3491°
Eccentric anomaly90.45273°
Mean motion0.46558 °/min
BSTARUnknown
Orbital period773.23 mins
Loading maneuver chart data...
Loading historical data...
Loading historical data...
Loading historical data...
Loading historical data...
Loading historical data...
Loading historical data...
Loading historical data...
Other satellites on launch #90 in the year 2019 (2019-12-16 UTC)

BEIDOU 3M19 Visibility forecast

Observer location: undefined°, undefined

Span
Click to sort rows by Start time (UTC) header in descending order
Start Az.
Max El. time (UTC)
Max El. Az.
Max El.
End time (UTC)
End Az.
293 mins2024-12-26 13:09:07.101Z308.671° NW2024-12-26 14:58:07.101Z56.184° ENE44.738°2024-12-26 18:02:07.101Z162.66° S
|